Home   Weather   Bremerhaven   Past weeks

Flag for Germany Past Weather in Bremerhaven, Bremen, Germany — Yesterday and Last 2 Weeks

50 °F


Feels Like: 46 °F
Forecast: 50 / 57 °F
Wind: 12 mph from Southwest

Location: Nordholz

Current Time: Oct 27, 2016 at 5:03:08 AM

Latest Report: Oct 27, 2016 at 4:20 AM

Visibility: 1 mi

Pressure: 30.30 "Hg

Humidity: 94%

Dew Point: 48 °F

Location of BremerhavenLocation

Past Weather in Bremerhaven — Graph


Bremerhaven Temperature Yesterday

Maximum temperature yesterday: 48 °F (at 2:20 PM)
Minimum temperature yesterday: 30 °F (at 3:20 AM)
Average temperature yesterday: 40 °F

High & Low Weather Summary for the Past Weeks

High59 °F (Oct 16, 2:20 PM)100% (Oct 12, 5:20 AM)30.39 "Hg (Oct 12, 5:20 AM)
Low30 °F (Oct 26, 3:20 AM)66% (Oct 13, 7:20 PM)29.77 "Hg (Oct 15, 6:20 AM)
Average46 °F90%30.07 "Hg
* Reported Oct 12 3:20 AM — Oct 27 3:20 AM, Bremerhaven, Weather by CustomWeather, © 2016

Note: Actual official high and low records may vary slightly from our data, if they occured in-between our weather recording intervals... More about our weather records


Bremerhaven Weather History for the Previous 24 Hours

Scroll right to see more
Time TempWeatherWind HumidityBarometerVisibility
3:20 AM
Thu, Oct 27
50 °FFog.12 mph94%30.30 "Hg1 mi
2:20 AM48 °FFog.12 mph100%30.30 "Hg1 mi
1:20 AM48 °FFog.10 mph94%30.30 "Hg3 mi
12:20 AM48 °FFog.12 mph87%30.33 "Hg3 mi
11:58 PM
Wed, Oct 26
48 °FFog.13 mph87%30.30 "Hg3 mi
11:20 PM48 °FPassing clouds.12 mph87%30.33 "Hg4 mi
11:00 PM48 °FPartly cloudy.13 mph82%30.33 "Hg4 mi
10:20 PM48 °FPassing clouds.12 mph82%30.33 "Hg4 mi
9:20 PM48 °FPassing clouds.9 mph82%30.33 "Hg4 mi
8:57 PM46 °FPartly cloudy.9 mph87%30.33 "Hg4 mi
8:20 PM46 °FFog.8 mph87%30.33 "Hg3 mi
7:47 PM46 °FFog.7 mph87%30.33 "Hg3 mi
7:20 PM46 °FFog.7 mph87%30.33 "Hg3 mi
6:20 PM46 °FFog.6 mph87%30.33 "Hg2 mi
5:20 PM46 °FFog.6 mph87%30.36 "Hg3 mi
4:20 PM48 °FScattered clouds.7 mph82%30.36 "Hg3 mi
3:20 PM48 °FPartly sunny.9 mph82%30.36 "Hg3 mi
2:20 PM48 °FFog.7 mph82%30.36 "Hg2 mi
1:20 PM46 °FFog.8 mph87%30.36 "Hg2 mi
12:20 PM45 °FFog.7 mph100%30.39 "Hg2 mi
11:20 AM43 °FFog.2 mph93%30.39 "Hg1 mi
10:57 AM41 °FPartly sunny.3 mph100%30.36 "Hg1 mi
10:20 AM36 °FFog.1 mph93%30.39 "Hg0 mi
9:20 AM32 °FIce fog.1 mph100%30.39 "Hg0 mi
8:50 AM32 °FIce fog.1 mph93%30.36 "Hg0 mi
8:20 AM32 °FIce fog.2 mph93%30.36 "Hg1 mi
7:20 AM32 °FIce fog.1 mph100%30.36 "Hg1 mi
6:59 AM36 °FFog.6 mph100%30.36 "Hg1 mi
6:20 AM34 °FFog.1 mph93%30.36 "Hg0 mi
5:20 AM32 °FIce fog.1 mph100%30.36 "Hg0 mi
Weather by CustomWeather, © 2016

See weather overviewHow to use our weather pages